Location: Westfield
(45.3617°N, 66.2417°W)
Time: 22:11:44
(UTC-04:00)

ISS - Visible Passes

Search period start: 19 November 2017 00:00
Search period end: 29 November 2017 00:00
Orbit: 402 x 407 km, 51.6° (Epoch: 20 November)

Date Brightness Start Highest point End Pass type
(mag) Time Alt. Az. Time Alt. Az. Time Alt. Az.
26 Nov -0.5 19:35:42 10° SW 19:35:43 10° SW 19:35:43 10° SW visible
27 Nov -2.4 18:43:38 10° SSW 18:45:46 29° S 18:45:46 29° S visible
28 Nov -2.1 17:51:57 10° S 17:54:27 20° SE 17:55:44 16° ESE visible
28 Nov -1.0 19:27:23 10° WSW 19:28:24 18° WSW 19:28:24 18° WSW visible
